Regional Weather Roundup
Issued by NWS Green Bay, WI

Home | Current Version | Previous Version | Text Only | Print | Product List | Glossary On
Versions: 1 2 3 4 5 6 7 8 9 10 11 12 13 14 15 16 17 18 19 20 21 22 23 24 25 26 27 28 29 30 31 32 33 34 35 36 37 38 39 40 41 42 43 44 45 46 47 48 49 50
000
ASUS43 KGRB 280410
RWRGRB

NORTH-CENTRAL AND NORTHEAST WISCONSIN REGIONAL WEATHER ROUNDUP
NATIONAL WEATHER SERVICE GREEN BAY WI
1000 PM CST FRI FEB 27 2015

WIZ005-009-010>012-018-019-280500-
NORTH CENTRAL WISCONSIN

CITY           SKY/WX    TMP DP  RH WIND       PRES   REMARKS
IRONWOOD       CLEAR      9  -8  47 SW10      30.40R WCI  -6
MANITOWISH WTR CLEAR      1 -11  58 SW5       30.41R WCI  -9
ARBOR VITAE    CLEAR      2  -9  59 CALM      30.42R
EAGLE RIVER    CLEAR      2 -11  56 CALM      30.41R
LAND O LAKES   CLEAR      3  -8  58 SW3       30.40S
RHINELANDER    CLEAR     -1 -10  65 SW5       30.43R WCI -11
PHILLIPS         N/A      3  -5  69 SW6       30.44S WCI  -8
ANTIGO         CLEAR      1  -7  69 SW6       30.45S WCI -11
TOMAHAWK       CLEAR      1  -6  71 CALM      30.46S
MERRILL        CLEAR     -3  -8  79 CALM      30.48S
$$

WIZ013-073-280500-
NORTHEAST WISCONSIN

CITY           SKY/WX    TMP DP  RH WIND       PRES   REMARKS
IRON MOUNTAIN  CLEAR      9  -6  50 CALM      30.43R
MARINETTE      CLEAR     10  -6  48 W5        30.52R WCI   2
OCONTO         CLEAR      8  -6  54 SW5       30.55R WCI  -1
$$

WIZ017-030-035>037-045-280500-
CENTRAL WISCONSIN

CITY           SKY/WX    TMP DP  RH WIND       PRES   REMARKS
MEDFORD        PTCLDY     2  -6  69 SW6       30.47R WCI  -9
WAUSAU           N/A      4  -5  66 CALM      30.49R
MOSINEE        CLEAR      3  -6  66 SW5       30.51R WCI  -6
MARSHFIELD     PTCLDY     3  -8  60 W7        30.51R WCI  -9
WISC RAPIDS    CLEAR      1  -9  62 SW3       30.56R
STEVENS POINT  PTCLDY     5  -8  55 W3        30.54R
WAUPACA        CLEAR      8  -6  53 SW5       30.57R WCI  -1
SHAWANO        CLEAR      9  -5  52 CALM      30.54R
CLINTONVILLE   CLEAR      9  -6  52 W5        30.55R WCI   0
$$

WIZ038-039-048-051-280500-
FOX VALLEY

CITY           SKY/WX    TMP DP  RH WIND       PRES   REMARKS
NWS GREEN BAY  CLEAR     10  -3  55 SW7       30.56R WCI  -1
APPLETON       CLEAR      9  -6  52 SW9       30.55R WCI  -5
OSHKOSH        CLEAR      7  -4  60 SW5       30.57R WCI  -2
FOND DU LAC    CLEAR      7  -4  60 SW9       30.58R WCI  -7
$$

WIZ022-050-052-280500-
EAST CENTRAL WISCONSIN

CITY           SKY/WX    TMP DP  RH WIND       PRES   REMARKS
STURGEON BAY     N/A      9  -6  52 SW6       30.55R WCI  -1
MANITOWOC      CLEAR      9  -1  64 SW8       30.58R WCI  -3
SHEBOYGAN      CLEAR      7  -4  60 SW10      30.58R WCI  -8
$$

LMZ563-521-522-541>543-280500-
LAKESHORE

STATION/POSITION TIME  TEMP    WIND        PRES    VSBY  WAVE
                       AIR SEA DIR/SP/G                  HT/PER
                 (UTC) (F)     (DEG/KT/KT) (MB)    (MI)  (FT/S)
SHEBOYGAN LKSHOR 0400   11     240/ 10/ 13 1037.8R
KEWAUNEE LKSHORE 0400   11     220/  6/  9 1033.7R
NORTHPORT PIER   0400   13     230/  6/ 13 1033.2R
SISTER BAY LKSHO 0300   13     250/ 12/ 15   N/A
CHAMBERS ISLAND  0400   11     200/  7/ 13 1033.2R
MENOMINEE LKSHOR 0400   12     220/  9     1034.2R
$$


USA.gov is the U.S. government's official web portal to all federal, state and local government web resources and services.